Regional Weather Roundup
Issued by NWS

Home | Current Version | Previous Version | Text Only | Print | Product List | Glossary On
Versions: 1 2 3 4 5 6 7 8 9 10 11 12 13 14 15 16 17 18 19 20 21 22 23 24 25 26 27 28 29 30 31 32 33 34 35 36 37 38 39 40 41 42 43 44 45 46 47 48 49 50
000
ASUS42 KTBW 230316
RWRFL
FLORIDA REGIONAL WEATHER ROUNDUP
NATIONAL WEATHER SERVICE TAMPA BAY RUSKIN FL
1100 PM EDT FRI MAY 22 2015

NOTE: "FAIR" INDICATES FEW OR NO CLOUDS BELOW 12,000 FEET WITH NO
SIGNIFICANT WEATHER AND/OR OBSTRUCTIONS TO VISIBILITY.


FLZ001>010-012>015-112-114-115-230400-
PANHANDLE FLORIDA

CITY           SKY/WX    TMP DP  RH WIND       PRES   REMARKS
PENSACOLA      CLEAR     75  58  55 NE6       30.18R
PENSACOLA NAS  PTCLDY    70  65  84 CALM      30.18R
MILTON NAS     CLEAR     70  57  63 N3        30.20
CRESTVIEW      CLEAR     65  58  78 CALM      30.21R
DUKE FIELD     CLEAR     68  59  73 CALM      30.18R
VALPARAISO     CLEAR     76  56  49 N2        30.18R
MARY ESTHER    CLEAR     71  65  82 CALM      30.17R
TRI COUNTY     FAIR      66  62  87 CALM      30.20R
PANAMA CITY    FAIR      69  63  81 CALM      30.18R
TYNDALL AFB    CLEAR     74  60  62 E3        30.18R
APALACHICOLA   CLEAR     77  65  66 NE5       30.18R

STATION/POSITION SKY/WX   TEMP    WIND        PRES    WAVE   SWELL
                          AIR SEA DIR/SP/G            HT/PER HT/PER
                          (F)     (DEG/KT/KT) (MB)    (FT/S) (FT/S)
30.1N   87.6W              78 81   CALM  /  2 1021.2R   1
29.2N   88.2W              78 81   80/ 10/ 12 1021.8R   2/ 5   2/ 5
28.8N   86.0W              78 81  100/  2/  4 1022.1R   2/ 5   2/ 5
PANAMA CITY BEAC           77 79   20/  6/  8 1021.4R
CAPE SAN BLAS    NOT AVBL
TOWER C                    78     300/  5/  6 1022.0R
28.5N   84.5W              79 80  340/  4/  6 1021.9R   1/ 4

$$
FLZ011-016>038-118-127-128-134-139-239-230400-
NORTH FLORIDA

CITY           SKY/WX    TMP DP  RH WIND       PRES   REMARKS
MARIANNA       CLEAR     71  59  65 CALM      30.18R
TALLAHASSEE    CLEAR     73  58  59 CALM      30.19R
PERRY          CLEAR     69  62  76 CALM      30.20R
CROSS CITY       N/A     73  62  68 CALM      30.19R
LAKE CITY      FAIR      70  64  83 E5        30.22R
GAINESVILLE    CLEAR     72  65  78 E6        30.21R
MAYPORT NAS    PTCLDY    73  68  84 NE13      30.21R
JACKSONVILLE   PTCLDY    70  66  87 NE6       30.21R
JAX NAS        PTCLDY    77  67  71 NE9       30.22R
JAX CRAIG      PTCLDY    73  67  81 E10       30.22R
JAX CECIL      MOCLDY    72  66  83 CALM      30.22R
FERNANDINA BEA FAIR      77  68  73 NE12      30.21R
ST AUGUSTINE   MOCLDY    75  70  83 NE12      30.21R

STATION/POSITION SKY/WX   TEMP    WIND        PRES    WAVE   SWELL
                          AIR SEA DIR/SP/G            HT/PER HT/PER
                          (F)     (DEG/KT/KT) (MB)    (FT/S) (FT/S)
SHELL POINT                78      10/  3/  5   N/A
KEATON BEACH               74      40/  3/  5 1022.3R
CEDAR KEY                  78      20/  6/  8 1022.3R
FERNANDINA                 73 80   60/  9/ 13 1022.0R
30.7N   81.3W                 76                N/A     5/ 5
MAYPORT                    74 78   60/ 16/ 19 1022.5R
31.4N   80.9W              73 76   70/ 14/ 17 1023.3R   4/ 7   2/12
ST AUGUSTINE               74 75   30/ 15/ 16 1023.4R

$$
FLZ040-043>046-052-053-057-058-063-144-230400-
INTERIOR CENTRAL FLORIDA

CITY           SKY/WX    TMP DP  RH WIND       PRES   REMARKS
OCALA          PTCLDY    75  64  69 E3        30.21R
THE VILLAGES     N/A     75  70  83 NE7       30.10S
LEESBURG       MOCLDY    77  68  73 E8        30.20R
SANFORD        CLOUDY    76  68  76 CALM      30.20R
ORLANDO EXEC   CLOUDY    77  69  76 E6        30.20R
ORLANDO INTL   CLOUDY    79  71  76 CALM      30.20R
WINTER HAVEN   LGT RAIN  74  70  87 NE6       30.20S
LAKELAND       PTCLDY    73  68  83 CALM      30.18S
BARTOW         FAIR      72  72 100 CALM      30.19S
OKEECHOBEE     CLOUDY    72  70  94 N5        30.16S

$$
FLZ041-047-054-059-064-141-147-230400-
EAST CENTRAL FLORIDA

CITY           SKY/WX    TMP DP  RH WIND       PRES   REMARKS
DAYTONA BEACH  MOCLDY    76  71  85 NE9       30.19R
DELAND           N/A     73  68  83 CALM      30.21R
JFK SPACE CTR  CLOUDY    72  69  88 W2        30.17R
CAPE CANAVERAL CLOUDY    74  69  85 N3        30.17R
PATRICK AFB    CLOUDY    80  71  75 E3        30.17R
MELBOURNE      CLOUDY    80  71  74 E3        30.18R THUNDER
VERO BEACH     TSTM      74  66  76 N16       30.18R
FT PIERCE      CLOUDY    77  71  82 NW7       30.17R
STUART         CLOUDY    77  72  83 N3        30.17R

STATION/POSITION SKY/WX   TEMP    WIND        PRES    WAVE   SWELL
                          AIR SEA DIR/SP/G            HT/PER HT/PER
                          (F)     (DEG/KT/KT) (MB)    (FT/S) (FT/S)
28.5N   80.2W              81 81   60/  4/  4 1021.5R
28.9N   78.5W              80 80   10/  6/  8 1021.2R
TRIDENT PIER               76 82   50/  2/  2 1021.7R
28.4N   80.5W                 81                N/A     2/ 4
27.5N   80.2W                 81                N/A     1/ 8

$$
FLZ050-056-061-142-242-148-248-149-249-151-251-155-255-
160-260-230400-
WEST CENTRAL FLORIDA

CITY           SKY/WX    TMP DP  RH WIND       PRES   REMARKS
CRYSTAL RIVER  FAIR      79  70  73 E8        30.18R
INVERNESS      CLOUDY    77  70  78 SE8       30.20R
BROOKSVILLE    MOCLDY    78  68  71 SE14      30.18R
CLEARWATER     CLEAR     78  69  73 S7        30.17R
TAMPA INTL     PTCLDY    78  67  68 VRB5      30.18R
TAMPA EXEC     PTCLDY    79  70  73 CALM      30.18S
PLANT CITY     PTCLDY    75  73  94 SE3       30.19F
MACDILL AFB    CLEAR     77  69  76 SE6       30.17R
PETER O KNIGHT CLEAR     79  72  78 S6        30.18R
ST PETERSBURG  CLEAR     78  68  71 S5        30.15R
SARASOTA       PTCLDY    74  65  73 NE5       30.14S
VENICE         FAIR      75  68  78 W3        30.15F

STATION/POSITION SKY/WX   TEMP    WIND        PRES    WAVE   SWELL
                          AIR SEA DIR/SP/G            HT/PER HT/PER
                          (F)     (DEG/KT/KT) (MB)    (FT/S) (FT/S)
CEDAR KEY                  78      20/  6/  8 1022.3R
28.5N   84.5W              79 80  340/  4/  6 1021.9R   1/ 4
27.3N   84.2W                 82                N/A     1/ 4
CLEARWATER BEACH           82 86  340/ 12/ 14 1020.6R
MIDDLE TAMPA BAY           77     150/ 12/ 14 1021.3R
VENICE                     76 85  230/  3/  4 1020.3F

$$
FLZ066-069-070-075>078-162-262-165-265-230400-
SOUTHWEST FLORIDA AND KEYS

CITY           SKY/WX    TMP DP  RH WIND       PRES   REMARKS
PUNTA GORDA    MOCLDY    72  69  90 N6        30.17R
FT MYERS       MOCLDY    74  71  91 E6        30.15R
SOUTHWEST INTL MOCLDY    72  70  93 N5        30.16R
NAPLES         PTCLDY    75  70  84 S5        30.14R
MARCO ISLAND   CLEAR     73  66  78 E8        30.16R
IMMOKALEE      CLEAR    N/A N/A N/A CALM      30.17R
MARATHON       CLEAR     82  74  76 E5        30.13R
KEY WEST NAS   CLEAR     82  72  71 NE6       30.13R
KEY WEST INTL  CLEAR     82  73  74 E3        30.13R

STATION/POSITION SKY/WX   TEMP    WIND        PRES    WAVE   SWELL
                          AIR SEA DIR/SP/G            HT/PER HT/PER
                          (F)     (DEG/KT/KT) (MB)    (FT/S) (FT/S)
VENICE                     76 85  230/  3/  4 1020.3F
NAPLES                     75 85   10/  2/  3 1020.0R
26.0N   85.6W              81 83   80/ 10/ 10 1020.6R   1
DRY TORTUGAS               82      70/  9/  9 1019.9R
NW FL BAY                  83      80/  6/  8 1019.8
SAND KEY                   83      80/ 10/ 11 1020.3R
SOMBRERO KEY               81      90/  9/ 10 1021.0R
LONG KEY                   82 88  100/  8/  9 1021.1R
MOLASSES REEF              81 82   90/  6/  7 1020.6R

$$
FLZ067-068-071>074-168-172>174-230400-
SOUTHEAST FLORIDA

CITY           SKY/WX    TMP DP  RH WIND       PRES   REMARKS
W PALM BEACH   MOCLDY    78  70  76 N5        30.15R
FT LAUDER-EXEC MOCLDY    80  70  71 CALM      30.13R
FT LAUDERDALE  MOCLDY    80  70  71 CALM      30.13R
POMPANO BEACH  MOCLDY    79  69  71 N3        30.13R
PEMBROKE PINES MOCLDY    78  68  71 W6        30.16R
OPA LOCKA      MOCLDY    77  68  73 NW7       30.15R
MIAMI          MOCLDY    78  65  63 W8        30.15R
WEST KENDALL   MOCLDY    75  68  78 NE5       30.15R
HOMESTEAD      NOT AVBL

STATION/POSITION SKY/WX   TEMP    WIND        PRES    WAVE   SWELL
                          AIR SEA DIR/SP/G            HT/PER HT/PER
                          (F)     (DEG/KT/KT) (MB)    (FT/S) (FT/S)
PORT EVERGLADES            81      20/  3/  5 1020.6R
VIRGINIA KEY               81 85   CALM  /  4 1019.6R
LAKE WORTH                 79 82  330/  6/  7 1019.8R
SETTLEMENT POINT           81     170/  2/  3 1021.7R

$$



USA.gov is the U.S. government's official web portal to all federal, state and local government web resources and services.